Tracking 29892 objects as of 21-Nov-2024
HD Live streaming from Space Station
objects crossing your sky now

BREEZE-M DEB

Track BREEZE-M DEB now!
10-day predictions


NORAD ID: 32040
Int'l Code: 2006-006T
Perigee: 427.2 km
Apogee: 13,264.1 km
Inclination: 51.6 °
Period: 252.0 minutes
Semi major axis: 13216 km
RCS: 0.077 m2 (small)
Launch date: February 28, 2006
Source: Commonwealth of Independent States (former USSR) (CIS)
Launch site: TYURATAM MISSILE AND SPACE COMPLEX (TTMTR)

Note: This is SATELLITE DEBRIS
Your satellite tracking list
Your tracking list is empty




NASA's NSSDC Master Catalog

Two Line Element Set (TLE):
1 32040U 06006T   24324.79681208  .00011625  00000-0  80270-2 0  9991
2 32040  51.6441 247.5025 4856345 326.3584  10.6128  5.71376677237316
Source of the keplerian elements: AFSPC